User: anonymous   Login
Location: Unspecified
(0.0000°N, 0.0000°E)
Time: 23:01:07
(UTC+00:00)
Language:

FLOCK 4BE 16 - Orbit

View from above orbital plane
View from above orbital plane
View from above satellite
View from above satellite

Ground track
Ground track

The orbit is defined by the following mean orbital elements,

1 60481U          26145.14846969 +.00000000 +00000-0 +58673-3 0 00009
2 60481  97.3758 228.0392 0002127  17.4464 342.6854 15.39245299    05
Epoch (UTC): 25 May 2026 03:33:47
Eccentricity: 0.0002127
inclination: 97.3758°
perigee height: 447 km
apogee height: 450 km
right ascension of ascending node: 228.0392°
argument of perigee: 17.4464°
revolutions per day: 15.39245299
mean anomaly at epoch: 342.6854°

The dashed part of the orbit path shows where the satellite is in the earth's shadow,  

DLR